Date String (YYYY-MM-DD hh:mm:ss) UTC,Instrument flags,Ambient pressure (hPa),Sample flow (lpm),Bypass flow (lpm),Sample temperature (°C),Ambient temperature (°C),ASC tube jacket temperature (°C),LED temperature (°C),Box temperature (°C),Sample RH (%),Span deviation,Mass concentration (μg/m³),Mass concentration (μg/m³),Mass concentration (μg/m³)
DateTimeUTC,F1_M11,P_M11,Q1_M11,Q2_M11,T1_M11,T2_M11,T3_M11,T4_M11,T5_M11,U1_M11,ZSPAN_M11,X0_M11,X2_M11,X1_M11
2022-03-13 08:00:00,,0823.2,5.01,0.00,22.7,22.0,00.0,31.6,24.5,10.7,0000.0,0002.33,0001.23,0000.85
2022-03-13 08:01:00,,0823.3,4.99,0.00,22.7,22.0,00.0,31.6,24.5,10.8,0000.0,0002.45,0001.27,0000.88
2022-03-13 08:02:00,,0823.2,4.99,0.00,22.7,22.0,00.0,31.6,24.5,10.7,0000.0,0002.72,0001.30,0000.90
2022-03-13 08:03:00,,0823.2,5.00,0.00,22.7,22.0,00.0,31.6,24.5,10.6,0000.0,0002.88,0001.33,0000.91
2022-03-13 08:04:00,,0823.2,5.00,0.00,22.7,22.0,00.0,31.6,24.5,10.6,0000.0,0002.83,0001.31,0000.92
2022-03-13 08:05:00,,0823.2,4.99,0.00,22.7,22.0,00.0,31.6,24.5,10.7,0000.0,0002.98,0001.37,0000.94
2022-03-13 08:06:00,,0823.2,4.99,0.00,22.7,22.0,00.0,31.6,24.5,10.7,0000.0,0003.24,0001.54,0000.99
2022-03-13 08:07:00,,0823.2,4.99,0.00,22.7,22.0,00.0,31.6,24.5,10.6,0000.0,0003.37,0001.68,0001.06
2022-03-13 08:08:00,,0823.3,5.01,0.00,22.7,22.0,00.0,31.6,24.5,10.8,0000.0,0003.58,0001.79,0001.13
2022-03-13 08:09:00,,0823.2,5.00,0.00,22.7,22.0,00.0,31.6,24.5,10.9,0000.0,0003.86,0001.91,0001.18
2022-03-13 08:10:00,,0823.2,5.00,0.00,22.7,22.0,00.0,31.6,24.5,10.9,0000.0,0005.45,0001.99,0001.22
2022-03-13 08:11:00,,0823.2,5.01,0.00,22.7,22.0,00.0,31.6,24.5,10.9,0000.0,0006.42,0002.06,0001.25
2022-03-13 08:12:00,,0823.1,4.98,0.00,22.7,22.0,00.0,31.6,24.5,10.9,0000.0,0006.67,0002.13,0001.29
2022-03-13 08:13:00,,0823.1,5.00,0.00,22.7,22.0,00.0,31.6,24.4,10.9,0000.0,0006.66,0002.20,0001.35
2022-03-13 08:14:00,,0823.1,5.01,0.00,22.7,22.0,00.0,31.6,24.5,10.8,0000.0,0006.93,0002.35,0001.42
2022-03-13 08:15:00,,0823.3,4.99,0.00,22.7,22.0,00.0,31.6,24.5,10.8,0000.0,0007.31,0002.52,0001.50
2022-03-13 08:16:00,,0823.3,4.99,0.00,22.7,22.0,00.0,31.6,24.5,10.8,0000.0,0007.50,0002.65,0001.58
2022-03-13 08:17:00,,0823.3,4.99,0.00,22.7,22.0,00.0,31.6,24.5,10.8,0000.0,0007.60,0002.70,0001.62
2022-03-13 08:18:00,,0823.3,5.01,0.00,22.7,22.0,00.0,31.6,24.5,10.7,0000.0,0007.57,0002.67,0001.62
2022-03-13 08:19:00,,0823.3,5.00,0.00,22.7,22.0,00.0,31.7,24.5,10.7,0000.0,0007.54,0002.66,0001.64
2022-03-13 08:20:00,,0823.2,5.00,0.00,22.7,22.0,00.0,31.7,24.6,10.7,0000.0,0007.40,0002.59,0001.66
2022-03-13 08:21:00,,0823.2,4.99,0.00,22.7,22.0,00.0,31.7,24.6,10.8,0000.0,0006.22,0002.64,0001.68
2022-03-13 08:22:00,,0823.2,5.00,0.00,22.7,22.0,00.0,31.7,24.6,10.9,0000.0,0005.14,0002.61,0001.70
2022-03-13 08:23:00,,0823.2,5.00,0.00,22.7,22.0,00.0,31.7,24.6,10.8,0000.0,0004.81,0002.58,0001.72
2022-03-13 08:24:00,,0823.2,5.00,0.00,22.7,22.0,00.0,31.7,24.6,10.8,0000.0,0004.80,0002.60,0001.75
2022-03-13 08:25:00,,0823.1,4.99,0.00,22.7,22.0,00.0,31.7,24.6,10.7,0000.0,0004.62,0002.60,0001.77
2022-03-13 08:26:00,,0823.1,5.01,0.00,22.7,22.0,00.0,31.7,24.5,10.8,0000.0,0004.43,0002.57,0001.79
2022-03-13 08:27:00,,0823.1,4.99,0.00,22.7,22.0,00.0,31.7,24.6,10.8,0000.0,0004.27,0002.55,0001.81
2022-03-13 08:28:00,,0823.1,5.01,0.00,22.8,22.0,00.0,31.7,24.6,10.8,0000.0,0004.54,0002.50,0001.85
2022-03-13 08:29:00,,0823.1,4.99,0.00,22.8,22.0,00.0,31.7,24.6,10.8,0000.0,0005.82,0002.55,0001.89
2022-03-13 08:30:00,,0823.2,4.99,0.00,22.8,22.0,00.0,31.7,24.6,10.8,0000.0,0006.54,0002.69,0001.94
2022-03-13 08:31:00,,0823.1,5.01,0.00,22.8,22.0,00.0,31.7,24.6,10.7,0000.0,0006.72,0002.75,0001.97
2022-03-13 08:32:00,,0823.1,4.99,0.00,22.8,22.1,00.0,31.7,24.6,10.6,0000.0,0006.75,0002.75,0001.98
2022-03-13 08:33:00,,0823.2,5.00,0.00,22.8,22.1,00.0,31.7,24.6,10.6,0000.0,0006.74,0002.71,0001.99
2022-03-13 08:34:00,,0823.3,5.01,0.00,22.8,22.1,00.0,31.7,24.6,10.7,0000.0,0007.61,0002.74,0002.02
2022-03-13 08:35:00,,0823.2,4.99,0.00,22.8,22.1,00.0,31.7,24.6,10.7,0000.0,0007.56,0002.71,0002.02
2022-03-13 08:36:00,,0823.2,5.01,0.00,22.8,22.1,00.0,31.7,24.6,10.6,0000.0,0007.51,0002.69,0002.03
2022-03-13 08:37:00,,0823.1,4.99,0.00,22.8,22.1,00.0,31.7,24.6,10.5,0000.0,0007.47,0002.67,0002.04
2022-03-13 08:38:00,,0823.1,5.00,0.00,22.8,22.0,00.0,31.7,24.6,10.5,0000.0,0007.46,0002.66,0002.01
2022-03-13 08:39:00,,0823.0,5.00,0.00,22.8,22.0,00.0,31.7,24.6,10.5,0000.0,0007.07,0002.60,0001.97
2022-03-13 08:40:00,,0822.9,5.00,0.00,22.8,22.0,00.0,31.7,24.6,10.5,0000.0,0005.61,0002.47,0001.93
2022-03-13 08:41:00,,0822.9,5.00,0.00,22.8,22.0,00.0,31.7,24.6,10.5,0000.0,0004.87,0002.38,0001.89
2022-03-13 08:42:00,,0822.9,5.00,0.00,22.8,22.0,00.0,31.7,24.6,10.6,0000.0,0004.60,0002.29,0001.84
2022-03-13 08:43:00,,0822.9,5.00,0.00,22.8,22.0,00.0,31.7,24.6,10.6,0000.0,0004.52,0002.25,0001.82
2022-03-13 08:44:00,,0823.0,4.98,0.00,22.8,22.0,00.0,31.7,24.6,10.6,0000.0,0004.93,0002.26,0001.81
2022-03-13 08:45:00,,0823.0,5.02,0.00,22.8,22.0,00.0,31.7,24.6,10.6,0000.0,0006.28,0002.30,0001.79
2022-03-13 08:46:00,,0823.0,5.00,0.00,22.8,22.0,00.0,31.7,24.6,10.6,0000.0,0006.24,0002.26,0001.77
2022-03-13 08:47:00,,0822.9,5.00,0.00,22.8,22.0,00.0,31.7,24.6,10.6,0000.0,0006.22,0002.25,0001.74
2022-03-13 08:48:00,,0822.8,4.99,0.00,22.8,22.0,00.0,31.7,24.6,10.6,0000.0,0006.18,0002.22,0001.72
2022-03-13 08:49:00,,0822.8,5.00,0.00,22.8,22.0,00.0,31.7,24.6,10.6,0000.0,0006.12,0002.20,0001.72
2022-03-13 08:50:00,,0822.7,5.01,0.00,22.8,22.0,00.0,31.7,24.6,10.7,0000.0,0006.13,0002.20,0001.73
2022-03-13 08:51:00,,0822.8,5.00,0.00,22.8,22.0,00.0,31.7,24.6,10.7,0000.0,0006.26,0002.22,0001.73
2022-03-13 08:52:00,,0822.9,4.99,0.00,22.8,22.0,00.0,31.7,24.6,10.7,0000.0,0006.95,0002.20,0001.74
2022-03-13 08:53:00,,0823.0,5.01,0.00,22.8,22.0,00.0,31.7,24.6,10.7,0000.0,0007.10,0002.22,0001.76
2022-03-13 08:54:00,,0823.0,4.99,0.00,22.8,22.0,00.0,31.7,24.6,10.7,0000.0,0007.33,0002.23,0001.77
2022-03-13 08:55:00,,0822.8,5.01,0.00,22.8,22.0,00.0,31.7,24.6,10.7,0000.0,0007.40,0002.23,0001.78
2022-03-13 08:56:00,,0822.7,4.99,0.00,22.8,22.0,00.0,31.7,24.6,10.7,0000.0,0006.00,0002.20,0001.78
2022-03-13 08:57:00,,0822.7,5.00,0.00,22.8,22.0,00.0,31.7,24.6,10.7,0000.0,0007.08,0002.32,0001.80
2022-03-13 08:58:00,,0822.7,4.99,0.00,22.8,22.0,00.0,31.7,24.6,10.7,0000.0,0007.39,0002.42,0001.81
2022-03-13 08:59:00,,0822.7,5.01,0.00,22.8,22.0,00.0,31.8,24.6,10.8,0000.0,0008.13,0002.61,0001.83
